QPF
0.06 0.06 0.05 0.04 0.04 0.04 0.06 0.07 0.07 0.05 0.03 0.02 0.01 0.01 0.01 0.02 0.03 0.02 0.01 0.02 0.03 0.03 0.04 0.03 0.03 0.03 0.04 0.04 0.04 0.03 0.04 0.08 0.11 0.09 0.05 0.03 0.03 0.04
0.05 0.06 0.05 0.05 0.04 0.02 0.02 0.04 0.06 0.05 0.04 0.03 0.02 0.02 0.01 0.01 0.01 0.02 0.02 0.01 0.02 0.03 0.03 0.03 0.03 0.02 0.02 0.02 0.03 0.03 0.03 0.04 0.06 0.07 0.06 0.05 0.06 0.05
0.02 0.04 0.05 0.05 0.04 0.04 0.03 0.02 0.03 0.04 0.03 0.02 0.02 0.01 0.01 0.00 0.00 0.01 0.01 0.01 0.01 0.02 0.03 0.03 0.03 0.03 0.03 0.02 0.02 0.03 0.03 0.03 0.04 0.04 0.04 0.04 0.05 0.05
0.02 0.02 0.03 0.04 0.04 0.04 0.04 0.04 0.03 0.03 0.03 0.02 0.02 0.01 0.01 0.01 0.01 0.01 0.01 0.02 0.03 0.03 0.03 0.04 0.04 0.04 0.03 0.03 0.03 0.03 0.03 0.03 0.03 0.02 0.02 0.02 0.02 0.02
0.02 0.02 0.02 0.03 0.03 0.03 0.03 0.03 0.03 0.03 0.03 0.02 0.02 0.01 0.02 0.02 0.03 0.02 0.03 0.03 0.05 0.06 0.07 0.07 0.08 0.06 0.04 0.03 0.02 0.02 0.02 0.02 0.02 0.01 0.01 0.01 0.01 0.02
0.03 0.03 0.02 0.03 0.04 0.04 0.04 0.03 0.03 0.03 0.02 0.01 0.02 0.02 0.01 0.03 0.04 0.04 0.04 0.04 0.05 0.06 0.08 0.08 0.08 0.07 0.05 0.03 0.02 0.02 0.01 0.02 0.02 0.02 0.02 0.02 0.01 0.01
0.03 0.04 0.04 0.03 0.04 0.05 0.04 0.03 0.04 0.04 0.03 0.01 0.01 0.01 0.01 0.02 0.02 0.03 0.04 0.04 0.05 0.06 0.06 0.06 0.06 0.05 0.05 0.04 0.03 0.02 0.01 0.01 0.01 0.01 0.01 0.01 0.01 0.01
0.03 0.04 0.05 0.05 0.05 0.05 0.05 0.05 0.04 0.04 0.03 0.02 0.01 0.01 0.01 0.01 0.02 0.03 0.04 0.04 0.04 0.07 0.07 0.07 0.08 0.06 0.05 0.05 0.03 0.01 0.01 0.00 0.00 0.01 0.01 0.00 0.00 0.00
0.03 0.03 0.03 0.03 0.03 0.04 0.05 0.06 0.05 0.04 0.03 0.02 0.01 0.01 0.01 0.01 0.02 0.03 0.04 0.03 0.04 0.06 0.08 0.07 0.07 0.07 0.06 0.06 0.03 0.02 0.01 0.01 0.00 0.00 0.00 0.01 0.01 0.01
0.02 0.03 0.04 0.03 0.02 0.03 0.04 0.05 0.05 0.04 0.04 0.02 0.01 0.01 0.02 0.02 0.03 0.03 0.04 0.04 0.05 0.06 0.07 0.07 0.06 0.06 0.06 0.05 0.04 0.03 0.02 0.01 0.01 0.00 0.00 0.00 0.00 0.00
0.01 0.01 0.02 0.03 0.03 0.02 0.03 0.04 0.03 0.04 0.04 0.04 0.02 0.02 0.03 0.03 0.03 0.03 0.03 0.04 0.04 0.04 0.05 0.07 0.06 0.05 0.06 0.05 0.04 0.03 0.02 0.02 0.02 0.02 0.01 0.01 0.01 0.01
0.01 0.02 0.02 0.02 0.02 0.03 0.02 0.03 0.03 0.03 0.03 0.04 0.03 0.02 0.03 0.03 0.03 0.03 0.02 0.03 0.03 0.03 0.04 0.05 0.06 0.06 0.06 0.05 0.04 0.03 0.03 0.03 0.02 0.02 0.02 0.01 0.01 0.01
0.01 0.01 0.01 0.02 0.03 0.03 0.03 0.03 0.03 0.04 0.03 0.04 0.05 0.04 0.03 0.03 0.03 0.02 0.02 0.01 0.01 0.02 0.03 0.05 0.05 0.06 0.06 0.06 0.05 0.04 0.04 0.03 0.03 0.02 0.01 0.01 0.01 0.01
0.02 0.02 0.02 0.03 0.03 0.04 0.04 0.03 0.03 0.04 0.05 0.05 0.05 0.06 0.04 0.03 0.03 0.02 0.02 0.01 0.01 0.02 0.03 0.05 0.05 0.05 0.06 0.06 0.06 0.04 0.03 0.03 0.02 0.02 0.02 0.02 0.02 0.01
0.03 0.03 0.04 0.04 0.04 0.04 0.04 0.04 0.04 0.03 0.04 0.05 0.05 0.05 0.05 0.04 0.04 0.03 0.02 0.02 0.02 0.02 0.03 0.04 0.05 0.05 0.06 0.06 0.06 0.05 0.05 0.04 0.03 0.02 0.02 0.02 0.02 0.01
0.03 0.03 0.03 0.03 0.02 0.02 0.02 0.02 0.02 0.03 0.04 0.04 0.05 0.06 0.06 0.05 0.05 0.05 0.04 0.03 0.02 0.02 0.02 0.04 0.05 0.05 0.05 0.05 0.05 0.05 0.05 0.05 0.03 0.02 0.01 0.01 0.01 0.01
0.04 0.03 0.03 0.03 0.03 0.02 0.02 0.02 0.02 0.02 0.03 0.04 0.04 0.04 0.05 0.05 0.05 0.06 0.06 0.05 0.03 0.02 0.03 0.03 0.04 0.04 0.04 0.05 0.05 0.05 0.05 0.04 0.04 0.02 0.01 0.01 0.01 0.01
0.05 0.04 0.03 0.03 0.02 0.02 0.02 0.01 0.01 0.01 0.02 0.03 0.03 0.04 0.04 0.04 0.05 0.06 0.07 0.06 0.05 0.03 0.02 0.02 0.02 0.03 0.04 0.04 0.05 0.05 0.05 0.05 0.04 0.04 0.02 0.02 0.01 0.01
0.05 0.04 0.03 0.03 0.03 0.02 0.02 0.02 0.02 0.01 0.01 0.02 0.03 0.04 0.04 0.04 0.04 0.05 0.06 0.06 0.05 0.04 0.03 0.02 0.02 0.03 0.04 0.04 0.04 0.04 0.05 0.05 0.05 0.04 0.03 0.02 0.02 0.01
0.02 0.02 0.03 0.03 0.03 0.03 0.03 0.04 0.04 0.03 0.03 0.03 0.03 0.03 0.04 0.05 0.05 0.05 0.06 0.06 0.05 0.05 0.04 0.03 0.02 0.03 0.03 0.04 0.04 0.04 0.04 0.04 0.04 0.04 0.03 0.02 0.02 0.03
0.02 0.02 0.03 0.03 0.02 0.02 0.03 0.04 0.05 0.06 0.06 0.05 0.04 0.03 0.03 0.03 0.04 0.05 0.05 0.06 0.06 0.05 0.04 0.04 0.03 0.02 0.02 0.03 0.03 0.03 0.03 0.04 0.04 0.04 0.03 0.03 0.02 0.02
0.03 0.03 0.03 0.02 0.02 0.02 0.03 0.03 0.03 0.04 0.04 0.04 0.04 0.02 0.01 0.01 0.02 0.03 0.04 0.05 0.06 0.05 0.05 0.04 0.03 0.03 0.02 0.03 0.02 0.02 0.03 0.03 0.03 0.03 0.03 0.03 0.03 0.03
0.04 0.06 0.04 0.03 0.02 0.02 0.03 0.03 0.03 0.02 0.02 0.02 0.02 0.02 0.02 0.02 0.02 0.02 0.03 0.03 0.05 0.06 0.06 0.05 0.05 0.04 0.04 0.03 0.03 0.03 0.03 0.03 0.03 0.03 0.02 0.02 0.02 0.02
MSLP
1021.61 1021.98 1022.36 1022.71 1023.02 1023.26 1023.42 1023.50 1023.50 1023.43 1023.32 1023.17 1023.01 1022.82 1022.63 1022.42 1022.20 1021.97 1021.74 1021.51 1021.29 1021.09 1020.91 1020.76 1020.64 1020.52 1020.40 1020.28 1020.14 1019.97 1019.79 1019.58 1019.38 1019.18 1018.99 1018.83 1018.68 1018.56
1021.59 1021.93 1022.27 1022.59 1022.87 1023.10 1023.27 1023.37 1023.40 1023.38 1023.32 1023.21 1023.08 1022.93 1022.75 1022.54 1022.32 1022.07 1021.82 1021.56 1021.31 1021.07 1020.86 1020.68 1020.52 1020.37 1020.23 1020.09 1019.94 1019.76 1019.57 1019.37 1019.17 1018.97 1018.79 1018.64 1018.50 1018.39
1021.57 1021.87 1022.18 1022.47 1022.73 1022.95 1023.13 1023.26 1023.34 1023.37 1023.36 1023.32 1023.24 1023.12 1022.96 1022.77 1022.55 1022.29 1022.01 1021.72 1021.43 1021.16 1020.90 1020.67 1020.47 1020.28 1020.10 1019.93 1019.75 1019.56 1019.35 1019.15 1018.95 1018.76 1018.59 1018.45 1018.33 1018.23
1021.51 1021.80 1022.07 1022.34 1022.59 1022.82 1023.01 1023.17 1023.30 1023.39 1023.45 1023.46 1023.43 1023.36 1023.24 1023.07 1022.86 1022.60 1022.30 1021.99 1021.66 1021.35 1021.05 1020.77 1020.52 1020.28 1020.06 1019.85 1019.63 1019.42 1019.20 1018.99 1018.79 1018.61 1018.45 1018.32 1018.21 1018.13
1021.42 1021.69 1021.95 1022.20 1022.45 1022.68 1022.89 1023.09 1023.26 1023.41 1023.52 1023.60 1023.63 1023.60 1023.52 1023.38 1023.18 1022.93 1022.63 1022.30 1021.96 1021.62 1021.28 1020.97 1020.67 1020.39 1020.13 1019.88 1019.63 1019.40 1019.16 1018.94 1018.74 1018.56 1018.41 1018.29 1018.20 1018.13
1021.28 1021.54 1021.79 1022.04 1022.28 1022.52 1022.75 1022.98 1023.19 1023.38 1023.55 1023.67 1023.75 1023.78 1023.74 1023.63 1023.46 1023.23 1022.94 1022.62 1022.28 1021.92 1021.57 1021.23 1020.90 1020.60 1020.31 1020.03 1019.77 1019.51 1019.27 1019.05 1018.84 1018.67 1018.53 1018.42 1018.33 1018.26
1021.10 1021.35 1021.60 1021.84 1022.09 1022.33 1022.58 1022.82 1023.06 1023.28 1023.48 1023.65 1023.77 1023.83 1023.83 1023.76 1023.63 1023.43 1023.17 1022.87 1022.54 1022.20 1021.85 1021.51 1021.18 1020.86 1020.57 1020.28 1020.01 1019.76 1019.52 1019.30 1019.10 1018.93 1018.79 1018.69 1018.60 1018.53
1020.86 1021.12 1021.37 1021.61 1021.86 1022.10 1022.36 1022.61 1022.86 1023.09 1023.31 1023.50 1023.64 1023.74 1023.77 1023.75 1023.65 1023.49 1023.28 1023.02 1022.72 1022.40 1022.08 1021.76 1021.44 1021.14 1020.86 1020.59 1020.34 1020.10 1019.88 1019.68 1019.49 1019.33 1019.20 1019.10 1019.01 1018.94
1020.59 1020.85 1021.10 1021.35 1021.60 1021.85 1022.10 1022.35 1022.59 1022.82 1023.04 1023.24 1023.40 1023.51 1023.58 1023.58 1023.53 1023.42 1023.25 1023.03 1022.78 1022.50 1022.22 1021.93 1021.66 1021.39 1021.15 1020.92 1020.70 1020.50 1020.32 1020.14 1019.99 1019.85 1019.73 1019.63 1019.54 1019.46
1020.29 1020.56 1020.82 1021.08 1021.33 1021.57 1021.82 1022.05 1022.28 1022.50 1022.71 1022.90 1023.06 1023.19 1023.27 1023.31 1023.29 1023.22 1023.10 1022.93 1022.73 1022.50 1022.26 1022.03 1021.80 1021.59 1021.40 1021.22 1021.07 1020.92 1020.79 1020.67 1020.56 1020.45 1020.35 1020.25 1020.17 1020.08
1019.98 1020.26 1020.54 1020.81 1021.07 1021.31 1021.54 1021.77 1021.97 1022.17 1022.36 1022.53 1022.69 1022.82 1022.92 1022.97 1022.99 1022.96 1022.88 1022.76 1022.60 1022.42 1022.24 1022.05 1021.89 1021.74 1021.61 1021.51 1021.43 1021.36 1021.30 1021.24 1021.17 1021.11 1021.03 1020.95 1020.86 1020.77
1019.67 1019.98 1020.28 1020.57 1020.83 1021.08 1021.30 1021.50 1021.69 1021.86 1022.03 1022.18 1022.33 1022.45 1022.56 1022.64 1022.68 1022.68 1022.64 1022.56 1022.45 1022.32 1022.19 1022.06 1021.95 1021.87 1021.82 1021.80 1021.79 1021.81 1021.82 1021.83 1021.83 1021.81 1021.76 1021.70 1021.62 1021.52
1019.38 1019.72 1020.05 1020.36 1020.63 1020.88 1021.09 1021.28 1021.44 1021.59 1021.73 1021.87 1022.01 1022.14 1022.25 1022.35 1022.42 1022.45 1022.44 1022.40 1022.33 1022.25 1022.17 1022.10 1022.05 1022.04 1022.06 1022.12 1022.20 1022.29 1022.38 1022.46 1022.51 1022.54 1022.53 1022.48 1022.40 1022.29
1019.12 1019.50 1019.86 1020.18 1020.47 1020.71 1020.92 1021.09 1021.23 1021.36 1021.49 1021.62 1021.75 1021.89 1022.02 1022.13 1022.23 1022.29 1022.32 1022.32 1022.30 1022.26 1022.23 1022.22 1022.24 1022.29 1022.38 1022.51 1022.67 1022.83 1022.98 1023.12 1023.22 1023.28 1023.29 1023.25 1023.17 1023.05
1018.90 1019.31 1019.69 1020.03 1020.32 1020.56 1020.75 1020.91 1021.04 1021.16 1021.28 1021.41 1021.55 1021.70 1021.85 1022.00 1022.13 1022.23 1022.30 1022.35 1022.38 1022.39 1022.42 1022.46 1022.54 1022.66 1022.81 1023.01 1023.22 1023.43 1023.64 1023.81 1023.94 1024.02 1024.04 1024.00 1023.90 1023.75
1018.69 1019.12 1019.51 1019.86 1020.15 1020.38 1020.56 1020.71 1020.83 1020.95 1021.08 1021.22 1021.39 1021.57 1021.76 1021.94 1022.12 1022.27 1022.40 1022.50 1022.58 1022.65 1022.74 1022.84 1022.98 1023.15 1023.36 1023.59 1023.84 1024.09 1024.32 1024.50 1024.64 1024.71 1024.72 1024.66 1024.54 1024.36
1018.48 1018.91 1019.30 1019.64 1019.92 1020.14 1020.32 1020.47 1020.60 1020.73 1020.88 1021.05 1021.25 1021.48 1021.72 1021.96 1022.19 1022.40 1022.59 1022.75 1022.90 1023.04 1023.18 1023.34 1023.53 1023.75 1023.99 1024.25 1024.52 1024.77 1024.99 1025.17 1025.28 1025.33 1025.30 1025.21 1025.05 1024.84
1018.20 1018.63 1019.01 1019.34 1019.61 1019.82 1020.00 1020.16 1020.31 1020.47 1020.66 1020.88 1021.14 1021.43 1021.73 1022.04 1022.33 1022.61 1022.86 1023.09 1023.30 1023.50 1023.71 1023.92 1024.15 1024.40 1024.67 1024.94 1025.20 1025.43 1025.62 1025.76 1025.83 1025.83 1025.76 1025.62 1025.43 1025.19
1017.84 1018.25 1018.61 1018.92 1019.18 1019.40 1019.59 1019.78 1019.97 1020.18 1020.43 1020.72 1021.05 1021.40 1021.78 1022.16 1022.52 1022.87 1023.19 1023.49 1023.76 1024.01 1024.27 1024.53 1024.79 1025.06 1025.33 1025.59 1025.83 1026.03 1026.17 1026.25 1026.27 1026.21 1026.09 1025.92 1025.69 1025.42
1017.36 1017.75 1018.09 1018.39 1018.66 1018.89 1019.11 1019.34 1019.58 1019.87 1020.19 1020.56 1020.97 1021.41 1021.86 1022.31 1022.74 1023.16 1023.54 1023.89 1024.21 1024.52 1024.81 1025.10 1025.38 1025.66 1025.93 1026.17 1026.37 1026.52 1026.61 1026.64 1026.59 1026.49 1026.33 1026.11 1025.86 1025.58
1016.76 1017.13 1017.47 1017.77 1018.04 1018.31 1018.57 1018.86 1019.18 1019.54 1019.96 1020.41 1020.91 1021.43 1021.95 1022.47 1022.97 1023.44 1023.87 1024.27 1024.63 1024.97 1025.29 1025.60 1025.89 1026.16 1026.41 1026.62 1026.79 1026.89 1026.94 1026.92 1026.83 1026.68 1026.49 1026.26 1026.01 1025.73
1016.06 1016.42 1016.76 1017.08 1017.38 1017.69 1018.01 1018.37 1018.78 1019.23 1019.73 1020.28 1020.86 1021.45 1022.05 1022.63 1023.18 1023.69 1024.16 1024.59 1024.98 1025.33 1025.67 1025.98 1026.27 1026.53 1026.76 1026.95 1027.08 1027.15 1027.16 1027.11 1026.99 1026.83 1026.63 1026.41 1026.17 1025.92
1015.32 1015.68 1016.03 1016.37 1016.72 1017.08 1017.47 1017.91 1018.39 1018.93 1019.52 1020.15 1020.81 1021.47 1022.12 1022.75 1023.34 1023.88 1024.37 1024.82 1025.22 1025.59 1025.92 1026.23 1026.51 1026.76 1026.97 1027.14 1027.25 1027.31 1027.30 1027.24 1027.12 1026.97 1026.79 1026.59 1026.38 1026.18
Thickness
5631 5631 5631 5632 5632 5633 5632 5632 5629 5626 5627 5629 5631 5634 5636 5638 5639 5641 5642 5643 5644 5644 5645 5646 5647 5648 5648 5648 5648 5648 5648 5647 5647 5646 5645 5645 5645 5645
5625 5625 5625 5626 5626 5627 5627 5627 5627 5625 5622 5624 5625 5628 5630 5632 5633 5635 5636 5637 5639 5639 5640 5641 5641 5642 5642 5643 5643 5643 5642 5642 5641 5640 5640 5639 5639 5639
5620 5620 5620 5620 5620 5620 5621 5621 5621 5620 5618 5619 5620 5622 5624 5625 5627 5629 5630 5632 5633 5634 5635 5635 5636 5636 5636 5637 5637 5637 5637 5636 5635 5634 5634 5633 5633 5632
5613 5613 5614 5615 5614 5614 5614 5615 5615 5615 5614 5613 5614 5615 5617 5619 5620 5622 5624 5626 5627 5628 5629 5630 5630 5631 5631 5631 5631 5631 5631 5630 5629 5628 5627 5627 5626 5626
5607 5607 5608 5608 5608 5608 5609 5609 5609 5610 5608 5607 5607 5608 5609 5611 5613 5615 5617 5619 5621 5622 5623 5624 5625 5625 5625 5625 5625 5625 5625 5624 5623 5622 5621 5620 5620 5619
5601 5601 5602 5602 5603 5602 5603 5603 5603 5602 5602 5601 5601 5601 5602 5604 5605 5606 5608 5610 5612 5615 5616 5617 5618 5619 5619 5619 5619 5619 5618 5618 5617 5616 5615 5614 5613 5613
5594 5595 5596 5597 5598 5598 5598 5597 5596 5595 5595 5595 5594 5594 5595 5596 5597 5599 5600 5602 5604 5606 5608 5609 5611 5612 5612 5613 5613 5612 5612 5612 5611 5610 5609 5609 5608 5607
5587 5588 5589 5590 5591 5592 5593 5593 5592 5591 5589 5589 5588 5588 5589 5590 5590 5592 5592 5593 5595 5598 5598 5601 5602 5604 5605 5605 5606 5606 5606 5606 5606 5605 5603 5603 5602 5601
5579 5580 5582 5584 5584 5584 5585 5585 5585 5586 5586 5585 5584 5583 5584 5585 5585 5585 5585 5586 5588 5590 5590 5592 5594 5596 5598 5598 5599 5599 5599 5599 5599 5598 5597 5596 5596 5595
5572 5573 5573 5575 5577 5577 5577 5577 5577 5577 5578 5579 5579 5580 5581 5580 5580 5581 5580 5580 5580 5581 5582 5583 5585 5587 5590 5591 5592 5592 5592 5592 5591 5591 5590 5589 5589 5588
5565 5566 5566 5567 5569 5569 5569 5568 5569 5569 5571 5572 5573 5573 5574 5574 5573 5572 5571 5571 5572 5573 5573 5574 5577 5578 5581 5583 5584 5584 5585 5584 5584 5583 5583 5583 5582 5581
5557 5558 5558 5559 5561 5561 5560 5560 5561 5562 5562 5563 5563 5565 5565 5566 5566 5566 5565 5564 5565 5565 5567 5566 5568 5568 5571 5575 5576 5577 5577 5577 5576 5576 5576 5575 5574 5573
5548 5549 5550 5552 5553 5553 5553 5553 5554 5554 5553 5553 5554 5554 5555 5557 5558 5558 5559 5559 5558 5559 5560 5559 5559 5559 5561 5563 5566 5567 5568 5568 5568 5568 5567 5567 5567 5566
5540 5541 5542 5543 5544 5544 5544 5545 5546 5545 5544 5544 5544 5544 5545 5546 5548 5550 5551 5551 5552 5552 5553 5552 5552 5552 5552 5554 5555 5557 5559 5560 5560 5560 5559 5559 5558 5558
5532 5533 5533 5533 5534 5534 5535 5536 5536 5535 5534 5534 5534 5535 5536 5537 5539 5541 5542 5542 5543 5543 5544 5544 5545 5545 5545 5546 5546 5546 5547 5550 5551 5551 5550 5550 5549 5549
5521 5522 5523 5523 5523 5524 5524 5525 5525 5525 5524 5524 5524 5525 5526 5527 5528 5530 5531 5532 5532 5533 5533 5535 5535 5536 5536 5536 5536 5537 5537 5539 5541 5542 5541 5541 5541 5541
5512 5511 5511 5511 5511 5511 5512 5513 5514 5513 5513 5513 5514 5514 5515 5517 5518 5519 5520 5521 5521 5522 5523 5523 5525 5525 5526 5526 5527 5528 5528 5528 5530 5532 5532 5532 5533 5533
5503 5501 5501 5501 5501 5501 5501 5501 5502 5503 5503 5504 5504 5504 5505 5506 5507 5508 5509 5510 5512 5513 5513 5513 5513 5514 5514 5516 5518 5519 5519 5519 5520 5521 5522 5523 5525 5525
5494 5493 5493 5493 5493 5493 5492 5492 5492 5493 5494 5494 5493 5494 5494 5495 5496 5497 5498 5500 5501 5502 5503 5503 5502 5503 5504 5507 5510 5509 5509 5510 5509 5510 5512 5513 5516 5518
5486 5485 5484 5484 5484 5484 5484 5483 5483 5483 5483 5483 5483 5483 5483 5484 5485 5486 5487 5488 5490 5491 5491 5492 5492 5493 5495 5497 5498 5499 5500 5500 5500 5501 5502 5504 5506 5507
5479 5478 5477 5477 5476 5475 5475 5475 5474 5473 5473 5472 5472 5472 5472 5472 5473 5474 5475 5477 5478 5479 5480 5481 5483 5485 5485 5485 5487 5490 5491 5491 5492 5492 5494 5494 5496 5497
5473 5471 5470 5469 5468 5467 5466 5465 5465 5464 5464 5463 5462 5462 5461 5461 5462 5462 5464 5465 5467 5468 5469 5471 5472 5474 5474 5476 5478 5480 5480 5481 5482 5483 5484 5486 5487 5488
5466 5465 5463 5463 5461 5460 5458 5457 5456 5455 5454 5453 5453 5453 5452 5451 5451 5452 5453 5454 5455 5456 5458 5459 5461 5462 5464 5465 5467 5469 5470 5471 5472 5473 5475 5476 5478 5479